Location: Chuathbaluk
(61.5726°N, 159.2454°W)
Time: 11:08:45
(UTC+00:00)

Explorer 7 - Pass Details

Date: 27 November 2020
Orbit: 484 x 678 km, 50.3° (Epoch: 17 January)

Event Time Altitude Azimuth Distance (km) Brightness Sun altitude
Exits shadow 15:47:41 18° 185° (S) 1,414 8.9 -23.0°
Maximum altitude 15:47:56 18° 180° (S) 1,408 8.9 -23.0°
Drops below altitude 10° 15:50:41 10° 138° (SE) 1,793 10.0 -22.7°
Sets 15:53:23 0° 118° (ESE) 2,647 11.4 -22.3°
